Alice, TX

2:09 AM CDT on March 25, 2017 (GMT -0500)
Alice International

Weather History for KALI - February, 2013

Change the Weather History Date:

Friday, February 15, 2013

  Actual Average Record
Temperature  
Mean Temperature 59 °F -  
Max Temperature 75 °F 71 °F 89 °F (2005)
Min Temperature 43 °F 49 °F 34 °F (2004)
Degree Days  
Heating Degree Days 6    
Growing Degree Days 9 (Base 50)    
Moisture  
Dew Point 43 °F    
Average Humidity 59    
Maximum Humidity 86    
Minimum Humidity 29    
Precipitation  
Precipitation 0.00 in - - ()
Sea Level Pressure  
Sea Level Pressure 30.14 in    
Wind  
Wind Speed 5 mph (NE)    
Max Wind Speed 20 mph    
Max Gust Speed 26 mph    
Visibility 10 miles    
Events      
Averages and records for this station are not official NWS values.
T = Trace of Precipitation, MM = Missing Value Source: NWS Daily Summary

Daily Weather History Graph

Daily Weather History Graph

Search for Another Location

Airport or City:

Trip Planner

Search our weather history database for the weather conditions in past years. The results will help you decide how hot, cold, wet, or windy it might be!

Date:

Astronomy

Feb. 15, 2013 Rise Set
Actual Time 7:09 AM CST 6:23 PM CST
Civil Twilight 6:45 AM CST 6:47 PM CST
Nautical Twilight 6:17 AM CST 7:15 PM CST
Astronomical Twilight 5:50 AM CST 7:42 PM CST
Moon 10:20 AM CST (2/15) 11:49 PM CST (2/15)
Length of Visible Light 12h 02m
Length of Day
11h 14m
Waxing Crescent, 30% of the Moon is Illuminated
Feb 15
Waxing Crescent
Feb 17
First Quarter
Feb 25
Full
Mar 4
Last Quarter
Mar 11
New

Hourly Weather History & Observations

Time (CST) Temp. Windchill Dew Point Humidity Pressure Visibility Wind Dir Wind Speed Gust Speed Precip Events Conditions
12:53 AM 46.9 °F - 39.9 °F 77% 30.06 in 10.0 mi Calm Calm - N/A   Clear
1:53 AM 46.0 °F - 39.9 °F 79% 30.07 in 10.0 mi Calm Calm - N/A   Clear
2:53 AM 43.0 °F 40.3 °F 37.9 °F 82% 30.06 in 10.0 mi NNE 4.6 mph - N/A   Clear
3:53 AM 44.1 °F 42.5 °F 39.0 °F 82% 30.07 in 10.0 mi North 3.5 mph - N/A   Clear
4:53 AM 44.1 °F - 39.9 °F 85% 30.08 in 10.0 mi Calm Calm - N/A   Clear
5:53 AM 44.1 °F 42.5 °F 39.9 °F 85% 30.09 in 10.0 mi NNW 3.5 mph - N/A   Clear
6:53 AM 45.0 °F 42.6 °F 41.0 °F 86% 30.12 in 10.0 mi NW 4.6 mph - N/A   Clear
7:53 AM 46.9 °F - 43.0 °F 86% 30.14 in 10.0 mi NW 4.6 mph - N/A   Clear
8:53 AM 57.0 °F - 48.0 °F 72% 30.16 in 10.0 mi Calm Calm - N/A   Clear
9:53 AM 64.9 °F - 50.0 °F 58% 30.17 in 10.0 mi East 4.6 mph - N/A   Clear
10:53 AM 69.1 °F - 48.9 °F 49% 30.17 in 10.0 mi East 6.9 mph - N/A   Clear
11:53 AM 72.0 °F - 46.0 °F 40% 30.16 in 10.0 mi ESE 8.1 mph - N/A   Clear
12:53 PM 75.9 °F - 41.0 °F 29% 30.13 in 10.0 mi NE 11.5 mph 16.1 mph N/A   Clear
1:53 PM 75.0 °F - 44.1 °F 33% 30.10 in 10.0 mi East 11.5 mph 20.7 mph N/A   Scattered Clouds
2:53 PM 75.9 °F - 42.1 °F 30% 30.09 in 10.0 mi ENE 12.7 mph 18.4 mph N/A   Clear
3:53 PM 75.9 °F - 42.1 °F 30% 30.09 in 10.0 mi East 10.4 mph 16.1 mph N/A   Mostly Cloudy
4:53 PM 70.0 °F - 48.0 °F 46% 30.11 in 10.0 mi ESE 15.0 mph - N/A   Scattered Clouds
5:53 PM 66.9 °F - 48.0 °F 51% 30.13 in 10.0 mi ESE 12.7 mph - N/A   Mostly Cloudy
6:53 PM 63.0 °F - 46.0 °F 54% 30.15 in 10.0 mi East 8.1 mph - N/A   Partly Cloudy
7:53 PM 60.1 °F - 43.0 °F 53% 30.19 in 10.0 mi East 5.8 mph - N/A   Clear
8:53 PM 57.9 °F - 41.0 °F 53% 30.22 in 10.0 mi Calm Calm - N/A   Scattered Clouds
9:53 PM 55.9 °F - 41.0 °F 57% 30.26 in 10.0 mi North 4.6 mph - N/A   Mostly Cloudy
10:53 PM 57.0 °F - 39.9 °F 53% 30.30 in 10.0 mi NNE 19.6 mph 26.5 mph N/A   Overcast
11:53 PM 57.0 °F - 39.9 °F 53% 30.32 in 10.0 mi NNE 16.1 mph 24.2 mph N/A   Overcast